Home   Weather   Rehoboth Beach   Past weeks
Flag for USA

Past Weather in Rehoboth Beach, Delaware, USA — Yesterday and Last 2 Weeks

Now
84 °F

Passing clouds.


Feels Like: 96 °F
Forecast: 92 / 79 °F
Wind: 5 mph from Southwest

Location: Sussex County Airport

Current Time: Jul 21, 2019 at 2:56:10 am

Latest Report: Jul 21, 2019 at 1:54 am


Visibility: 9 mi

Pressure: 29.86 "Hg

Humidity: 85%

Dew Point: 79 °F

Location of Rehoboth BeachLocation

Past Weather in Rehoboth Beach — Graph

°F

Rehoboth Beach Temperature Yesterday

Maximum temperature yesterday: 98 °F (at 2:54 pm)
Minimum temperature yesterday: 81 °F (at 1:54 am)
Average temperature yesterday: 89 °F

High & Low Weather Summary for the Past Weeks

 TemperatureHumidityPressure
High99 °F (Jul 17, 1:54 pm)100% (Jul 12, 4:37 am)30.11 "Hg (Jul 12, 4:37 am)
Low64 °F (Jul 9, 3:54 am)35% (Jul 15, 3:54 pm)29.76 "Hg (Jul 12, 3:54 am)
Average81 °F74%29.95 "Hg
* Reported Jul 6 12:54 am — Jul 21 12:54 am, Rehoboth Beach. Weather by CustomWeather, © 2019

Note: Actual official high and low records may vary slightly from our data, if they occured in-between our weather recording intervals... More about our weather records

Advertising

Rehoboth Beach Weather History for the Previous 24 Hours

Scroll right to see more
 ConditionsComfort  
Time TempWeatherWind HumidityBarometerVisibility
12:54 am
Sun, Jul 21
83 °FClear.5 mph88%29.85 "Hg9 mi
11:54 pm
Sat, Jul 20
84 °FClear.5 mph83%29.86 "Hg10 mi
10:54 pm85 °FClear.6 mph80%29.87 "Hg10 mi
9:54 pm86 °FClear.5 mph77%29.87 "Hg10 mi
8:54 pm87 °FClear.3 mph75%29.86 "Hg10 mi
7:54 pm92 °FSunny.6 mph62%29.86 "Hg10 mi
6:54 pm95 °FSunny.6 mph52%29.85 "Hg10 mi
5:54 pm95 °FScattered clouds.8 mph54%29.85 "Hg10 mi
4:54 pm96 °FPartly sunny.7 mph51%29.84 "Hg10 mi
3:54 pm97 °FPartly sunny.10 mph51%29.84 "Hg10 mi
2:54 pm98 °FScattered clouds.N/A48%29.86 "Hg10 mi
1:54 pm97 °FScattered clouds.9 mph48%29.88 "Hg10 mi
12:54 pm96 °FSunny.8 mph49%29.90 "Hg10 mi
11:54 am95 °FSunny.6 mph52%29.92 "Hg10 mi
10:54 am92 °FSunny.6 mph58%29.93 "Hg10 mi
9:54 am91 °FSunny.5 mph64%29.92 "Hg10 mi
8:54 am89 °FSunny.5 mph68%29.92 "Hg10 mi
7:54 am86 °FSunny.6 mph77%29.93 "Hg10 mi
6:54 am83 °FSunny.5 mph88%29.93 "Hg10 mi
5:54 am82 °FSunny.5 mph91%29.92 "Hg10 mi
4:54 am82 °FClear.6 mph91%29.91 "Hg10 mi
3:54 am81 °FPassing clouds.3 mph91%29.90 "Hg10 mi
2:54 am82 °FPassing clouds.3 mph88%29.90 "Hg10 mi
Weather by CustomWeather, © 2019

See weather overview